Home   Weather   Orlando   Past weeks

Flag for USA Past Weather in Orlando, Florida, USA — Yesterday and Last 2 Weeks

Now
77 °F

Overcast.


Feels Like: 78 °F
Forecast: 75 / 82 °F
Wind: 5 mph from Southwest

Location: Orlando Executive Airport

Current Time: Aug 31, 2016 at 12:10:18 PM

Latest Report: Aug 31, 2016 at 10:53 AM


Visibility: 10 mi

Pressure: 29.96 "Hg

Humidity: 94%

Dew Point: 75 °F

Location of OrlandoLocation

Past Weather in Orlando — Graph

°F

Orlando Temperature Yesterday

Maximum temperature yesterday: 85 °F (at 1:53 PM)
Minimum temperature yesterday: 74 °F (at 2:53 AM)
Average temperature yesterday: 78 °F

High & Low Weather Summary for the Past Weeks

 TemperatureHumidityPressure
High96 °F (Aug 22, 4:53 PM)100% (Aug 30, 3:53 AM)30.19 "Hg (Aug 30, 3:53 AM)
Low74 °F (Aug 29, 10:53 PM)38% (Aug 22, 4:53 PM)29.89 "Hg (Aug 30, 3:53 PM)
Average83 °F77%30.04 "Hg
* Reported Aug 16 10:53 AM — Aug 31 10:53 AM, Orlando, Weather by CustomWeather, © 2016

Note: Actual official high and low records may vary slightly from our data, if they occured in-between our weather recording intervals... More about our weather records

Advertising

Orlando Weather History for the Previous 24 Hours

Scroll right to see more
 ConditionsComfort  
Time TempWeatherWind HumidityBarometerVisibility
10:53 AM
Wed, Aug 31
77 °FOvercast.5 mph94%29.96 "Hg10 mi
10:03 AM79 °FLight rain. Fog.14 mph90%29.95 "Hg1 mi
9:53 AM79 °FMostly cloudy.8 mph90%29.95 "Hg8 mi
9:00 AM78 °FLight rain. Fog.9 mph90%29.93 "Hg6 mi
8:53 AM78 °FMostly cloudy.9 mph90%29.93 "Hg10 mi
7:53 AM78 °FPassing clouds.9 mph90%29.93 "Hg10 mi
6:53 AM77 °FOvercast.12 mph90%29.91 "Hg10 mi
5:53 AM77 °FPassing clouds.8 mph90%29.92 "Hg10 mi
4:53 AM77 °FPassing clouds.13 mph90%29.91 "Hg10 mi
3:53 AM77 °FOvercast.14 mph90%29.91 "Hg10 mi
2:53 AM77 °FPassing clouds.10 mph90%29.91 "Hg10 mi
1:53 AM77 °FOvercast.9 mph90%29.93 "Hg10 mi
12:53 AM77 °FMostly cloudy.13 mph90%29.93 "Hg10 mi
11:53 PM
Tue, Aug 30
77 °FOvercast.7 mph94%29.93 "Hg10 mi
10:53 PM77 °FPassing clouds.8 mph94%29.94 "Hg10 mi
9:53 PM75 °FOvercast.7 mph96%29.93 "Hg10 mi
8:53 PM78 °FOvercast.7 mph87%29.92 "Hg10 mi
7:53 PM77 °FBroken clouds.8 mph94%29.90 "Hg10 mi
6:53 PM77 °FBroken clouds.9 mph90%29.89 "Hg10 mi
5:53 PM76 °FMore clouds than sun.13 mph97%29.89 "Hg10 mi
4:53 PM77 °FMostly cloudy.15 mph94%29.89 "Hg10 mi
3:53 PM84 °FThunderstorms. Passing clouds.13 mph77%29.89 "Hg10 mi
2:53 PM83 °FMostly cloudy.13 mph77%29.90 "Hg10 mi
1:53 PM85 °FCloudy.7 mph72%29.91 "Hg10 mi
12:53 PM84 °FMore clouds than sun.5 mph77%29.93 "Hg10 mi
Weather by CustomWeather, © 2016

See weather overviewHow to use our weather pages